This demonstration page uses our WeatherBlox Daily Observations layout. Learn more.

Left ArrowRight Arrow

44.8408, -93.29828

Hourly Observations for June 26, 2015

Temp ( °F °C ) Dew Point ( °F °C ) Humidity (%) Winds ( mph kmh ) Pressure ( in mb ) Visibility ( mi km ) Precip ( " mm )
12:53 am 00:53 Partly Cloudy 68 20 57 13.9 68 68 NNE 6 9 30.03 1017 10 16 0.00 0.00
1:53 am 01:53 Mostly Cloudy 68 20 57 13.9 68 68 NNE 5 7 30.01 1016 10 16 0.00 0.00
2:53 am 02:53 Mostly Clear 66 18.9 57 13.9 73 73 NNE 5 7 30.01 1016 10 16 0.00 0.00
3:53 am 03:53 Partly Cloudy 66 18.9 57 13.9 73 73 NNE 5 7 30.01 1016 10 16 0.00 0.00
4:53 am 04:53 Mostly Cloudy 65 18.3 57 13.9 76 76 NNE 5 7 30.03 1017 10 16 0.00 0.00
5:53 am 05:53 Mostly Cloudy 65 18.3 58 14.4 78 78 NNE 3 6 30.05 1018 10 16 0.00 0.00
6:53 am 06:53 Mostly Cloudy 65 18.3 58 14.4 78 78 N 3 6 30.06 1018 10 16 0.00 0.00
7:53 am 07:53 Mostly Cloudy 67 19.4 59 15 76 76 ENE 8 13 30.08 1019 10 16 0.00 0.00
8:53 am 08:53 Mostly Cloudy 69 20.6 60 15.6 73 73 ENE 7 11 30.09 1019 10 16 0.00 0.00
9:53 am 09:53 Mostly Cloudy 72 22.2 62 16.7 71 71 VRB 3 6 30.07 1018 10 16 0.00 0.00
10:53 am 10:53 Mostly Cloudy 73 22.8 63 17.2 71 71 E 7 11 30.08 1019 9 14 0.00 0.00
11:53 am 11:53 Mostly Cloudy 76 24.4 63 17.2 64 64 ENE 10 17 30.07 1018 10 16 0.00 0.00
12:53 pm 12:53 Partly Cloudy 78 25.6 60 15.6 54 54 E 8 13 30.06 1018 10 16 0.00 0.00
1:53 pm 13:53 Mostly Cloudy 79 26.1 59 15 50 50 E 6 9 30.05 1018 10 16 0.00 0.00
2:53 pm 14:53 Mostly Cloudy 81 27.2 56 13.3 42 42 NE 12 19 30.04 1017 10 16 0.00 0.00
3:53 pm 15:53 Mostly Cloudy 79 26.1 55 12.8 44 44 ENE 9 15 30.04 1017 10 16 0.00 0.00
4:53 pm 16:53 Mostly Cloudy 78 25.6 56 13.3 47 47 ESE 8 13 30.04 1017 10 16 0.00 0.00
5:10 pm 17:10 Mostly Cloudy with Nearby Thunderstorms 79 26 55 13 45 45 ENE 8 13 30.00 1016 10 16 0.00 0.00
5:28 pm 17:28 Mostly Cloudy with Thunderstorms 76 24.4 53 11.7 45 45 ENE 18 30 30.00 1016 10 16 0.00 0.03
5:53 pm 17:53 Mostly Cloudy with Rain 70 21.1 54 12.2 57 57 VRB 5 7 30.06 1018 8 13 0.04 1.02
6:53 pm 18:53 Mostly Cloudy 74 23.3 56 13.3 54 54 S 3 6 30.05 1018 10 16 0.02 0.51
7:53 pm 19:53 Mostly Cloudy 70 21.1 63 17.2 79 79 WNW 9 15 30.07 1018 10 16 0.00 0.00
8:53 pm 20:53 Mostly Cloudy 69 20.6 59 15 70 70 WNW 7 11 30.06 1018 10 16 0.00 0.00
9:53 pm 21:53 Mostly Cloudy 70 21.1 59 15 68 68 WSW 3 6 30.08 1019 10 16 0.00 0.00
10:53 pm 22:53 Mostly Clear 67 19.4 60 15.6 79 79 Calm 30.08 1019 10 16 0.00 0.00
11:53 pm 23:53 Mostly Clear 66 18.9 60 15.6 81 81 SW 5 7 30.07 1018 10 16 0.00 0.00

Powered by AerisWeather